map of PHY home
Great Circle Mapper logo
PHY - Airport
Location
City:  Phetchabun, Thailand
ICAO / IATA:VTPB / PHY

Details
Type:Airport (Aerodrome, Airfield)
Latitude:1640'34"N (16.676028)
Longitude:10111'42"E (101.195108)
Datum:WGS 1984
Elevation:450 ft (137 m)
Variation:0.75W (WMM2015 magnetic declination)
0.00 annual change
Runways:1
Longest:6890 × 148 ft (2100 × 45 m), paved

Time
Time Zone:UTC+7
Local Time:

Weather
TAF:VTPB 221700Z 2218/2318 22007KT 9999 SCT040
TEMPO 2309/2311 23020KT 4000 TSRA FEW020CB
BECMG 2313/2315 21005KT 8000 BKN035

Related Locations
Nearby:
Farthest:SJA: 12186 mi / 19612 km
San Juan de Marcona [San Juan de Marcona Airport], ICA, PE

Find:

   beyond  
but within

Other Information
Maps:
NOTAMs:
Links:
Sources:

  
flag of Thailand   

Sectional Chart

Flight Planning
at skyvector.com

Satellite Image

Google Maps Satellite View

 

Copyright © 2004-2015 Karl L. Swartz. All rights reserved.
The Great Circle Mapper name and logo are trademarks of the Great Circle Mapper.
All other trademarks mentioned herein belong to their respective owners.
Please see credits for attibutions and further copyright information.

  Follow gcmap on Facebook Follow gcmap on Twitter Follow gcmap on Google+

hCard Microformat

Geo Microformat